[[{"header":{"parameterUnit":"m.s-1","parameterCategory":1,"la1":30.2991,"la2":30.254,"lo1":-89.0895,"lo2":-89.0444,"dy":0.0017,"dx":0.0017,"nx":28,"ny":28,"refTime":"2023-10-31T09:00:00:Z","depth":0,"parameterNumber":2,"parameterNumberName":"U-component_of_WINDS"},"data":[0,0,0,0,0,0,0,0,0,0,0,0,0,0,0,0,0,0,0,0,0,0,0,0,0,0,0,0,0,0,0,0,0,0,0,0,0,0,0,0,0,0,0,0,0,0,0,0,0,0,0,0,0,0,0,0,0,0,0.1117,0.1117,0,0.1056,0.1055,0.1054,0.1054,0.1054,0.1055,0.1056,0.0991,0.0988,0.0986,0,0,0,0,0,0,0,0,0,0,0,0,0,0.1235,0.1232,0.1118,0.1117,0.1116,0.1056,0.1055,0.1054,0.1053,0.1054,0.1055,0.1056,0.0991,0.0988,0.0985,0,0,0,0,0,0,0,0,0,0,0,0,0,0.1179,0.1232,0.1118,0.1108,0.1107,0.1056,0.1055,0.1054,0.1053,0.1054,0.1056,0.1057,0.0992,0.0989,0.0985,0.0938,0,0,0.0974,0.0972,0,0,0,0,0,0,0,0,0.1182,0.1175,0.1111,0.1109,0.1107,0.1064,0.1072,0.1015,0.1053,0.1074,0.1056,0.1057,0.1014,0.1008,0.0994,0.0935,0.0932,0.0973,0.0971,0.0969,0.0968,0,0,0,0,0,0,0,0.1186,0.1178,0.1093,0.111,0.1108,0.1107,0.1101,0.1061,0.1038,0.1072,0.1072,0.1064,0.1013,0.0998,0.0992,0.0931,0.0973,0.097,0.0968,0.0966,0.0832,0.0831,0,0,0,0,0,0,0.1192,0.1181,0.1095,0.1091,0.1149,0.1104,0.1097,0.1076,0.1038,0.1033,0.1064,0.1065,0.1003,0.0997,0.099,0.0933,0.0969,0.0966,0.0964,0.0833,0.0832,0.083,0,0,0,0,0,0,0.1195,0.1184,0.1097,0.1136,0.1125,0.1101,0.1078,0.1074,0.1059,0.1032,0.1027,0.1052,0.1004,0.0995,0.0951,0.0931,0.0964,0.0961,0.0835,0.0833,0.0831,0.0818,0,0,0,0,0,0,0.1198,0.1185,0.1167,0.1136,0.1123,0.106,0.1077,0.1072,0.1053,0.1054,0.102,0.1015,0.1004,0.0957,0.0948,0.0926,0.0958,0.0836,0.0834,0.0831,0.082,0.0816,0.0812,0,0,0,0,0,0.1202,0.1166,0.1166,0.1156,0.11,0.1059,0.1051,0.104,0.1051,0.1033,0.1016,0.1017,0.0935,0.0952,0.0942,0.0919,0.0838,0.0835,0.0832,0.0822,0.0817,0.0812,0,0,0,0,0,0,0.1194,0.1161,0.1162,0.1114,0.1089,0.1059,0.1035,0.1034,0.1005,0.1007,0.0994,0.0986,0.0942,0.0927,0.0947,0.0872,0.0888,0.0882,0.0884,0.0879,0.0875,0.0879,0.0955,0,0,0,0,0,0.1187,0.1157,0.113,0.109,0.1078,0.1059,0.104,0.1034,0.1007,0.0997,0.0976,0.095,0.0919,0.0898,0.0867,0.0819,0.0811,0.0798,0.0794,0.0791,0.0786,0.0759,0.0753,0.082,0.082,0.082,0,0,0.1172,0.115,0.1132,0.1088,0.1068,0.1037,0.105,0.1016,0.0992,0.0991,0.0948,0.0933,0.0903,0.0857,0.0835,0.0842,0.0766,0.0787,0.0785,0.0781,0.0756,0.0749,0.0744,0.0818,0.0819,0.0819,0,0,0.1128,0.1108,0.1073,0.1054,0.1024,0.1012,0.1004,0.0973,0.0963,0.092,0.0919,0.0891,0.0837,0.0816,0.0798,0.0749,0.0748,0.0739,0.0717,0.0692,0.0686,0.0682,0.0664,0.0657,0.0735,0.0735,0.0735,0,0.1112,0.1065,0.1055,0.1022,0.1003,0.1002,0.0966,0.0947,0.0909,0.0896,0.0904,0.0837,0.0817,0.0766,0.0754,0.074,0.073,0.0742,0.0688,0.0683,0.0679,0.0661,0.0655,0.0734,0.0734,0.0734,0.0734,0,0.1047,0.1015,0.099,0.0954,0.0933,0.0898,0.0883,0.0862,0.0859,0.0845,0.0802,0.0779,0.0744,0.0731,0.0726,0.068,0.0685,0.0691,0.0706,0.0671,0.0655,0.0648,0.0732,0.0733,0.0733,0.0733,0,0,0.0994,0.0955,0.0946,0.093,0.0898,0.0872,0.0839,0.0805,0.0788,0.0762,0.0733,0.0688,0.0694,0.0674,0.0667,0.0645,0.0607,0.0654,0.0653,0.0645,0.0554,0.0549,0.0541,0.0608,0.0606,0.0605,0.0556,0,0.0946,0.0886,0.0877,0.0824,0.0794,0.0794,0.0764,0.0741,0.0729,0.0702,0.0688,0.0656,0.0667,0.0654,0.0633,0.0616,0.0588,0.062,0.058,0.0578,0.0586,0.0533,0.0527,0.0482,0.055,0.0549,0.0548,0,0.0881,0.0855,0.0799,0.0772,0.0759,0.0733,0.0702,0.0676,0.0651,0.0643,0.0622,0.0618,0.0583,0.0601,0.0552,0.0574,0.0558,0.0547,0.0545,0.054,0.056,0.0525,0.0467,0.046,0.0538,0.0538,0.0539,0,0.0848,0.0798,0.0759,0.0745,0.0713,0.0694,0.068,0.0656,0.0637,0.061,0.0598,0.0567,0.055,0.0526,0.0515,0.0529,0.0467,0.0484,0.0459,0.046,0.0445,0.0446,0.0382,0.0436,0.0436,0.0436,0.0436,0,0.0794,0.076,0.0743,0.0719,0.068,0.0671,0.0633,0.062,0.0598,0.0571,0.0569,0.0544,0.053,0.0503,0.0494,0.0455,0.0447,0.044,0.0438,0.044,0.044,0.0428,0.043,0.0434,0.0435,0.0435,0.0435,0,0.075,0.0737,0.0694,0.0668,0.066,0.0633,0.0611,0.0587,0.0576,0.0541,0.0532,0.0514,0.0482,0.0469,0.0429,0.0423,0.0378,0.0378,0.0386,0.0386,0.0362,0.0364,0.0287,0.0276,0.0338,0.0337,0.0337,0,0.0716,0.069,0.0661,0.0643,0.0628,0.0599,0.058,0.0571,0.0551,0.0521,0.0501,0.0469,0.0442,0.0391,0.0374,0.0344,0.0343,0.0318,0.0338,0.0341,0.0342,0.0343,0.0341,0.0314,0.0313,0.0313,0.0313,0,0.0657,0.0652,0.0625,0.0596,0.0574,0.055,0.0527,0.0513,0.05,0.0478,0.0445,0.0425,0.0385,0.0353,0.0323,0.0308,0.0308,0.0307,0.0299,0.03,0.0306,0.0302,0.0375,0.0308,0.0309,0.0309,0.0309,0.0309,0.0616,0.0593,0.057,0.054,0.0522,0.0501,0.0478,0.0464,0.0437,0.0404,0.04,0.0365,0.0342,0.03,0.0285,0.0257,0.0263,0.0253,0.025,0.0247,0.0245,0.0311,0.0252,0.0252,0.0252,0.0252,0.0252,0,0.0557,0.0542,0.0515,0.0483,0.046,0.0464,0.0439,0.0419,0.0389,0.0367,0.0342,0.0305,0.0275,0.0256,0.0226,0.0207,0.0207,0.02,0.02,0.0197,0.0242,0.0251,0.0201,0.0201,0.0201,0.0201,0.0201,0.0201,0.0523,0.0484,0.0477,0.043,0.0416,0.0382,0.0367,0.0348,0.0331,0.029,0.0265,0.0254,0.0233,0.0202,0.0174,0.017,0.0158,0.0151,0.0146,0.0188,0.0194,0.0199,0.0207,0.0148,0.0148,0.0103,0.0103,0.0103]},{"header":{"parameterUnit":"m.s-1","parameterCategory":1,"la1":30.2991,"la2":30.254,"lo1":-89.0895,"lo2":-89.0444,"dy":0.0017,"dx":0.0017,"nx":28,"ny":28,"refTime":"2023-10-31T09:00:00:Z","depth":0,"parameterNumber":3,"parameterNumberName":"V-component_of_WINDS"},"data":[0,0,0,0,0,0,0,0,0,0,0,0,0,0,0,0,0,0,0,0,0,0,0,0,0,0,0,0,0,0,0,0,0,0,0,0,0,0,0,0,0,0,0,0,0,0,0,0,0,0,0,0,0,0,0,0,0,0,-8.2331,-8.2332,0,-8.2414,-8.2415,-8.2416,-8.233,-8.2326,-8.2323,-8.232,-8.2398,-8.2403,-8.2408,0,0,0,0,0,0,0,0,0,0,0,0,0,-8.2092,-8.2097,-8.2331,-8.2332,-8.2333,-8.2414,-8.2415,-8.2416,-8.233,-8.2326,-8.2322,-8.2318,-8.2396,-8.2402,-8.2408,0,0,0,0,0,0,0,0,0,0,0,0,0,-8.2188,-8.2099,-8.2331,-8.23,-8.2298,-8.2413,-8.2415,-8.2416,-8.2331,-8.2326,-8.2321,-8.2316,-8.2394,-8.2402,-8.2409,-8.2557,0,0,-8.2433,-8.2436,0,0,0,0,0,0,0,0,-8.2182,-8.2196,-8.2304,-8.2303,-8.2301,-8.2356,-8.2359,-8.2463,-8.2332,-8.2318,-8.232,-8.2314,-8.2388,-8.2396,-8.2422,-8.256,-8.2564,-8.2434,-8.2438,-8.2442,-8.2444,0,0,0,0,0,0,0,-8.2176,-8.2192,-8.2363,-8.2305,-8.2304,-8.228,-8.2288,-8.2378,-8.238,-8.2319,-8.2313,-8.2325,-8.2386,-8.2415,-8.2423,-8.2565,-8.2433,-8.244,-8.2445,-8.2448,-8.2827,-8.2833,0,0,0,0,0,0,-8.2174,-8.2187,-8.2361,-8.2366,-8.2228,-8.2289,-8.2298,-8.2343,-8.2378,-8.2379,-8.2329,-8.232,-8.2404,-8.2414,-8.2425,-8.26,-8.2442,-8.2449,-8.2453,-8.2822,-8.2829,-8.2835,0,0,0,0,0,0,-8.2169,-8.219,-8.2358,-8.2275,-8.2295,-8.2298,-8.235,-8.2348,-8.2376,-8.2386,-8.2385,-8.2358,-8.24,-8.2414,-8.2525,-8.2601,-8.2452,-8.2459,-8.2816,-8.2824,-8.2832,-8.295,0,0,0,0,0,0,-8.2162,-8.2189,-8.2246,-8.2277,-8.23,-8.2458,-8.2355,-8.2353,-8.2391,-8.238,-8.2413,-8.2414,-8.2397,-8.2514,-8.2533,-8.2609,-8.2466,-8.2809,-8.2819,-8.2829,-8.294,-8.2962,-8.298,0,0,0,0,0,-8.2154,-8.2275,-8.225,-8.2271,-8.2372,-8.2463,-8.2475,-8.2456,-8.2397,-8.2454,-8.246,-8.2413,-8.259,-8.2526,-8.2546,-8.2627,-8.2804,-8.2816,-8.2828,-8.293,-8.2957,-8.298,0,0,0,0,0,0,-8.225,-8.2278,-8.2251,-8.2386,-8.2423,-8.2448,-8.2519,-8.2485,-8.2537,-8.2525,-8.2497,-8.2505,-8.2622,-8.2635,-8.2563,-8.2771,-8.2687,-8.2704,-8.2758,-8.2783,-8.2803,-8.2797,-8.2472,0,0,0,0,0,-8.2288,-8.2361,-8.2381,-8.2498,-8.2518,-8.2516,-8.2555,-8.2537,-8.2573,-8.2587,-8.2601,-8.2637,-8.27,-8.2742,-8.2801,-8.2941,-8.2946,-8.3006,-8.3027,-8.3043,-8.3058,-8.3132,-8.3159,-8.2875,-8.2875,-8.2874,0,0,-8.2364,-8.2389,-8.2437,-8.2518,-8.2544,-8.2619,-8.2529,-8.2612,-8.2667,-8.2599,-8.2705,-8.2717,-8.2754,-8.288,-8.2936,-8.2894,-8.3138,-8.3059,-8.3072,-8.3078,-8.3148,-8.3174,-8.3198,-8.2883,-8.2881,-8.288,0,0,-8.2543,-8.257,-8.267,-8.2699,-8.2742,-8.274,-8.2764,-8.2795,-8.2801,-8.2907,-8.2858,-8.2921,-8.3032,-8.306,-8.3089,-8.328,-8.3238,-8.33,-8.3405,-8.3478,-8.3501,-8.352,-8.3587,-8.3612,-8.3314,-8.3315,-8.3315,0,-8.2633,-8.2746,-8.2725,-8.2813,-8.2849,-8.2794,-8.2894,-8.2923,-8.2982,-8.3007,-8.296,-8.3098,-8.3119,-8.3251,-8.3297,-8.3323,-8.3348,-8.3295,-8.3499,-8.3519,-8.3537,-8.3601,-8.3626,-8.3322,-8.3321,-8.332,-8.3319,0,-8.2853,-8.2933,-8.3008,-8.3069,-8.3114,-8.3207,-8.3199,-8.3247,-8.3225,-8.3228,-8.3336,-8.336,-8.3422,-8.3452,-8.3431,-8.3581,-8.3554,-8.3504,-8.3419,-8.3572,-8.3631,-8.3655,-8.3332,-8.3329,-8.3327,-8.3326,0,0,-8.3094,-8.3144,-8.3172,-8.3199,-8.3242,-8.3301,-8.3391,-8.3455,-8.3496,-8.3539,-8.3612,-8.3708,-8.3662,-8.3695,-8.3676,-8.374,-8.3889,-8.3682,-8.3682,-8.3719,-8.4055,-8.4092,-8.4121,-8.3862,-8.3867,-8.387,-8.4051,0,-8.3273,-8.3432,-8.3417,-8.3567,-8.3639,-8.3588,-8.3667,-8.37,-8.3705,-8.3765,-8.3769,-8.3837,-8.3772,-8.3791,-8.3852,-8.3858,-8.3956,-8.3845,-8.3928,-8.3932,-8.392,-8.4152,-8.4191,-8.4361,-8.4075,-8.4078,-8.4081,0,-8.3503,-8.3557,-8.3715,-8.3748,-8.3777,-8.3849,-8.3906,-8.3965,-8.4001,-8.4,-8.4038,-8.4008,-8.4097,-8.4011,-8.4132,-8.4057,-8.409,-8.4098,-8.4104,-8.411,-8.4015,-8.4163,-8.4415,-8.444,-8.4118,-8.4115,-8.4112,0,-8.3662,-8.3773,-8.3883,-8.3907,-8.3948,-8.3999,-8.4018,-8.405,-8.409,-8.4139,-8.4164,-8.4222,-8.4254,-8.4299,-8.4285,-8.4224,-8.4408,-8.4322,-8.4408,-8.4409,-8.4448,-8.4446,-8.4708,-8.4472,-8.4471,-8.4471,-8.447,0,-8.3864,-8.3962,-8.3955,-8.4022,-8.413,-8.4111,-8.4218,-8.423,-8.4259,-8.4326,-8.4285,-8.4348,-8.4326,-8.4388,-8.4377,-8.4479,-8.4493,-8.4493,-8.4489,-8.4497,-8.4497,-8.4517,-8.4505,-8.4477,-8.4476,-8.4475,-8.4473,0,-8.4059,-8.4058,-8.4174,-8.4204,-8.4214,-8.4292,-8.4317,-8.4379,-8.438,-8.4466,-8.4484,-8.4486,-8.4557,-8.4548,-8.4625,-8.4618,-8.4744,-8.4726,-8.4733,-8.4728,-8.4815,-8.4806,-8.5098,-8.5135,-8.4876,-8.4878,-8.488,0,-8.4188,-8.4263,-8.4302,-8.4345,-8.4368,-8.4438,-8.4478,-8.4462,-8.4505,-8.4554,-8.461,-8.4677,-8.4729,-8.4844,-8.4851,-8.491,-8.4892,-8.499,-8.49,-8.4906,-8.4893,-8.4888,-8.4895,-8.5008,-8.5011,-8.5013,-8.5015,0,-8.4415,-8.4411,-8.4473,-8.4535,-8.4586,-8.4633,-8.4675,-8.4712,-8.47,-8.475,-8.4823,-8.4865,-8.4945,-8.5012,-8.5068,-8.5084,-8.5048,-8.5044,-8.5067,-8.5075,-8.5075,-8.5075,-8.478,-8.5037,-8.5034,-8.5033,-8.5032,-8.5031,-8.458,-8.4645,-8.4683,-8.4753,-8.4784,-8.4825,-8.4885,-8.4895,-8.4956,-8.5022,-8.5008,-8.509,-8.5124,-8.5196,-8.5218,-8.5281,-8.5244,-8.5278,-8.5286,-8.5294,-8.5305,-8.5066,-8.5291,-8.529,-8.5289,-8.5289,-8.5288,0,-8.4805,-8.4828,-8.4893,-8.4955,-8.501,-8.4973,-8.5018,-8.5066,-8.5139,-8.5175,-8.5229,-8.5312,-8.5377,-8.539,-8.5451,-8.5498,-8.5483,-8.5514,-8.551,-8.5514,-8.5334,-8.5308,-8.5526,-8.5526,-8.5526,-8.5526,-8.5526,-8.5526,-8.4929,-8.5036,-8.5037,-8.5158,-8.5179,-8.5261,-8.529,-8.5327,-8.5356,-8.5452,-8.5506,-8.5515,-8.5541,-8.5604,-8.5661,-8.5663,-8.5686,-8.5725,-8.572,-8.5551,-8.5527,-8.5505,-8.548,-8.5731,-8.5731,-8.5896,-8.5897,-8.5898]}]]